sat.trackr.live / text

‹ back to catalog

TK-2

NORAD 52150 · 2022-031A

PAYLOAD ACTIVE UNKNOWN

§ Identity

Operator
Country
PRC
Launch date
2022-03-29
Launch site
TAISC
Launch vehicle
Mass (kg)
RCS (m²)

External: N2YO · Heavens-Above · Gunter

§ Orbital elements

Epoch: 2026-09-20T22:47:57.453792Z

Period
95.75 min
Inclination
97.8280°
Eccentricity
0.0015881
Mean motion
15.03977981 rev/d
Perigee alt
543.6 km
Apogee alt
565.7 km
Semi-major
6,932.8 km
B*
1.2665e-4
RAAN
101.2292°
Arg perigee
157.3857°
Mean anomaly
202.8072°
Rev number
24,485

§ Raw data

TK-21 52150U 22031A   26263.94997053  .00001689  00000+0  12665-3 0  99922 52150  97.8280 101.2292 0015881 157.3857 202.8072 15.03977981244859

JSON: /api/v1/satellites/52150 · /tle

For live sub-satellite position, see the globe view (requires WebGL).

§ Visibility from observer

Set your observer location to see the next 7 days of passes ≥ 10°. The values pass through the URL so the page stays shareable.

No JS? Fill the form by hand. The geolocation button needs JavaScript.